Погода в Гавриловке

Россия / Оренбургская область     51°56′05″N   56°09′07″E
темп.,
°C
ветер,
м/с
пор.,
м/с
влажн.,
%
обл.,
%
осадки,
мм/ч
давл.,
гПа
погр.,
м
16 мая, вс
вс1623:00+21юв22400 0.0 102211
02:00+18в11450 0.0 102211
05:00+17в11500 0.0 102311
08:00+21вюв12480 0.0 1023116
11:00+26ююв22380 0.0 1023611
14:00+30ююв12240 0.0 10222788
17:00+30ююз12215 0.0 10213280
20:00+25в22394 0.0 102014
17 мая, пн
пн1723:00+21вюв114273 0.0 102111
02:00+19вюв22441 0.0 102111
05:00+18в114664 0.0 102211
08:00+22вюв22452 0.0 1022114
11:00+27ю34355 0.0 1022610
14:00+30ю24255 0.0 10213370
17:00+30юв232320 0.0 10203374
20:00+26юв124245 0.0 101911
18 мая, вт
вт1823:00+19всв47525 0.0 1021121
02:00+18юв11530 0.0 102011
05:00+17юв115743 0.0 101911
08:00+20св125259 0.0 1019128
11:00+26ссв23390 0.0 1018596
14:00+30ссв33241 0.0 10173122
17:00+30с33273 0.0 10163088
20:00+25ссв345043 0.0 101663
19 мая, ср
ср1923:00+21св39536 0.0 1016150
02:00+18св35635 0.0 101684
05:00+16всв497024 0.0 1017218
08:00+17в712670 0.0 1018492
11:00+21в79540 0.0 1019912
14:00+23в78430 0.0 10191346
17:00+23в78381 0.0 10191606
20:00+20всв49570 0.0 1019215
20 мая, чт
чт2023:00+15всв413560 0.0 1020270
02:00+13в412530 0.0 1022235
05:00+12в411590 0.0 1022194
08:00+16вюв510550 0.0 1023425
11:00+20юв68430 0.0 10231209
14:00+23юв67365 0.0 10221617
17:00+23юв56340 0.0 10211735
20:00+20вюв33520 0.0 102136